Regional Weather Roundup
Issued by NWS

Home | Current Version | Previous Version | Text Only | Print | Product List | Glossary Off
Versions: 1 2 3 4 5 6 7 8 9 10 11 12 13 14 15 16 17 18 19 20 21 22 23 24 25 26 27

000
ASUS45 KSLC 081210
RWRUT

UTAH REGIONAL WEATHER ROUNDUP
NATIONAL WEATHER SERVICE SALT LAKE CITY UT
500 AM MST THU DEC 08 2016

UTZ001>011-023>025-081300-

NORTHERN UTAH

CITY           SKY/WX    TMP DP  RH WIND       PRES   REMARKS
BRIGHAM CITY     N/A     15   8  73 NW3       30.30F
HILL AFB       CLOUDY    13   3  63 E15       30.25F WCI  -3
LOGAN          CLEAR      9   6  88 CALM      30.31F
OGDEN          PTCLDY    15   6  67 S3        30.27F
SALT LAKE CITY MOCLDY    21  11  65 E5        30.27F WCI  15
TOOELE VALLEY  PTCLDY    19  14  79 S3        30.28S
WENDOVER       MOCLDY    19   9  63 CALM      30.28S
HEBER CITY     PTCLDY     9   3  78 CALM      30.24F
WEST JORDAN    MOCLDY    18  14  85 SE3       30.27F

$$

UTZ011>015-024>027-081300-

CENTRAL/NORTHEAST UTAH

CITY           SKY/WX    TMP DP  RH WIND       PRES   REMARKS
PROVO AIRPORT  PTCLDY    17   6  62 S7        30.29F WCI   8
MOAB/CANYONLAN CLOUDY    21   6  52 CALM      30.30S
DELTA          CLOUDY    18   9  68 SW5       30.25S WCI  11
PRICE          CLOUDY    15  -4  42 CALM      30.24S
RICHFIELD      CLOUDY    18  10  73 CALM      30.28F
ROOSEVELT      CLOUDY    14   5  67 CALM      30.34S
VERNAL         CLOUDY    13   4  67 S3        30.32S

$$

UTZ013>016-019>022-027-081300-

SOUTHERN UTAH

CITY           SKY/WX    TMP DP  RH WIND       PRES   REMARKS
BRYCE CANYON     N/A      9   4  80 VRB3      30.17
CEDAR CITY     CLOUDY    19  12  74 CALM      30.20R
MILFORD        CLOUDY    18   8  65 SE5       30.23S WCI  11
ST GEORGE      PTSUNNY   30  10  43 CALM      30.27F
HANKSVILLE     PTCLDY    14   5  67 CALM      30.33S
KANAB          CLOUDY    28   7  40 N9        30.26S WCI  20
BLANDING       MOCLDY    20   1  44 N6        30.31F WCI  12

$$

REGIONAL REPORTS     COLORADO/ARIZONA

CITY           SKY/WX    TMP DP  RH WIND       PRES   REMARKS
CRAIG, CO      CLOUDY    -7 -13  75 CALM      30.30S
GRAND JUNCTION CLOUDY    17   7  64 SE6       30.32S WCI   9
RIFLE, CO      CLOUDY     8   3  80 CALM      30.34S
MONTROSE, CO   CLOUDY    13   5  70 SE3       30.34R
CORTEZ, CO     CLOUDY     9   4  80 CALM      30.27S
COLORADO CITY  PTSUNNY   32   9  37 NE8G18    30.23F WCI  25
PAGE, AZ       MOCLDY    28   3  34 CALM      30.27R
GRAND CANYON   PTCLDY    21  12  68 CALM      30.19S
KINGMAN, AZ    CLEAR     28   9  44 CALM      30.17S
FLAGSTAFF, AZ  CLEAR     16  13  88 CALM      30.18F

$$

REGIONAL REPORTS    NEVADA/IDAHO/WYOMING

CITY           SKY/WX    TMP DP  RH WIND       PRES   REMARKS
LAS VEGAS, NV  MOCLDY    37   5  26 SW6       30.20F WCI  32
ELY, NY        CLOUDY    18  11  74 CALM      30.15F
ELKO, NV       FLURRIES  20  13  74 NE7       30.15F WCI  11
POCATELLO, ID  CLOUDY    -4  -7  87 NE3       30.31F
BURLEY, ID     CLEAR      8   4  83 NE14      30.27F WCI  -8
FORT BRIDGER,    N/A     -2  -6  83 CALM      30.23F
EVANSTON, WY   CLOUDY     2  -8  63 E5        30.17F WCI  -8
ROCK SPRINGS,  CLOUDY    -6  -9  86 E5        30.23S WCI -17
KEMMERER, WY     N/A     -8 -13  77 N10       30.18S WCI -26

$$




USA.gov is the U.S. government's official web portal to all federal, state and local government web resources and services.